Home   Weather   Khon Kaen   Past weeks

Flag for Thailand Past Weather in Khon Kaen, Thailand — Yesterday and Last 2 Weeks

Now
82 °F

Clear.


Feels Like: 84 °F
Forecast: 69 / 88 °F
Wind: 2 mph from North

Location: Khon Kaen Airport

Current Time: Jan 19, 2017 at 10:05:07 pm

Latest Report: Jan 19, 2017 at 9:00 pm


Visibility: 10 mi

Pressure: 29.95 "Hg

Humidity: 55%

Dew Point: 64 °F

Location of Khon KaenLocation

Past Weather in Khon Kaen — Graph

°F

Khon Kaen Temperature Yesterday

Maximum temperature yesterday: 88 °F (at 2:00 pm)
Minimum temperature yesterday: 70 °F (at 6:00 am)
Average temperature yesterday: 78 °F

High & Low Weather Summary for the Past Weeks

 TemperatureHumidityPressure
High91 °F (Jan 7, 1:00 pm)100% (Jan 10, 6:00 am)30.07 "Hg (Jan 10, 6:00 am)
Low64 °F (Jan 16, 7:00 am)41% (Jan 15, 4:00 pm)29.71 "Hg (Jan 12, 5:00 pm)
Average79 °F71%29.87 "Hg
* Reported Jan 4 8:00 pm — Jan 19 8:00 pm, Khon Kaen, Weather by CustomWeather, © 2017

Note: Actual official high and low records may vary slightly from our data, if they occured in-between our weather recording intervals... More about our weather records

Advertising

Khon Kaen Weather History for the Previous 24 Hours

Scroll right to see more
 ConditionsComfort  
Time TempWeatherWind HumidityBarometerVisibility
8:00 pm
Thu, Jan 19
75 °FClear.1 mph69%29.95 "Hg10 mi
7:00 pm79 °FClear.2 mph58%29.92 "Hg10 mi
6:00 pm84 °FPassing clouds.3 mph48%29.89 "HgN/A
5:00 pm91 °FSunny.2 mph41%29.89 "Hg10 mi
4:00 pm91 °FPassing clouds.6 mph41%29.89 "HgN/A
3:00 pm91 °FSunny.6 mph41%29.89 "Hg10 mi
2:00 pm91 °FClear.5 mph41%29.92 "Hg6 mi
1:00 pm90 °FClear.6 mph43%29.95 "Hg6 mi
12:00 pm88 °FClear.6 mph49%29.98 "Hg6 mi
11:00 am84 °FClear.7 mph51%30.01 "Hg6 mi
10:00 am82 °FClear.7 mph55%30.04 "Hg6 mi
9:00 am79 °FClear.7 mph61%30.04 "Hg5 mi
8:00 am73 °FPassing clouds.6 mph78%30.04 "Hg5 mi
7:00 am66 °FClear.3 mph94%30.01 "Hg5 mi
6:00 am68 °FClear.5 mph88%29.98 "Hg5 mi
5:00 am68 °FClear.3 mph94%29.98 "Hg6 mi
4:00 am68 °FClear.3 mph94%29.98 "Hg10 mi
3:00 am70 °FPassing clouds.3 mph88%29.98 "HgN/A
2:00 am70 °FClear.3 mph88%29.98 "Hg10 mi
1:00 am73 °FClear.2 mph78%30.01 "Hg10 mi
12:00 am75 °FClear.6 mph74%30.01 "Hg10 mi
11:00 pm
Wed, Jan 18
75 °FClear.6 mph74%30.01 "Hg10 mi
10:00 pm73 °FClear.3 mph78%30.04 "Hg10 mi
Weather by CustomWeather, © 2017

See weather overviewHow to use our weather pages